Tracking 19164 objects as of 20-May-2018
HD Live streaming from Space Station
objects crossing your sky now

FENGYUN 1C DEB

Track FENGYUN 1C DEB now!
10-day predictions


NORAD ID: 30183
Int'l Code: 1999-025UQ
Perigee: 851.1 km
Apogee: 894.0 km
Inclination: 99.1 °
Period: 102.3 minutes
Semi major axis: 7243 km
RCS: 0.0464 m2 (small)
Launch date: May 10, 1999
Source: People's Republic of China (PRC)
Launch site: Taiyaun Space Center, China (TSC)

Note: This is SATELLITE DEBRIS
aabbcc
Your satellite tracking list
Your tracking list is empty




NASA's NSSDC Master Catalog

Two Line Element Set (TLE):
1 30183U 99025UQ  18139.74690206 +.00000095 +00000-0 +81496-4 0  9992
2 30183 099.0827 164.1614 0029606 106.3482 314.4058 14.08239224582052
Source of the keplerian elements: AFSPC